Tracking 19638 objects as of 20-May-2019
HD Live streaming from Space Station
objects crossing your sky now

MARISAT 1

Track MARISAT 1 now!
MARISAT 1 is classified as:


NORAD ID: 8697
Int'l Code: 1976-017A
Perigee: 36,048.7 km
Apogee: 36,141.5 km
Inclination: 11.6 °
Period: 1,451.5 minutes
Semi major axis: 42466 km
RCS: 5.8066 m2 (large)
Launch date: February 19, 1976
Source: United States (US)
Launch site: AIR FORCE EASTERN TEST RANGE (AFETR)
aabbcc
Your satellite tracking list
Your tracking list is empty




NASA's NSSDC Master Catalog

Two Line Element Set (TLE):
1  8697U 76017A   19139.18228844  .00000027  00000-0  00000+0 0  9999
2  8697  11.5590 319.1664 0010926 122.3925  74.4876  0.99206464156430
Source of the keplerian elements: AFSPC